Time,TemperatureF,DewpointF,PressureIn,WindDirection,WindDirectionDegrees,WindSpeedMPH,WindSpeedGustMPH,Humidity,HourlyPrecipIn,Conditions,Clouds,dailyrainin,SoftwareType,DateUTC
2013-01-28 00:10:00,20.4,17.0,29.45,South,181,0.0,-999.0,86,-99.99,,,0.00,weatherlink.com 1.10,2013-01-28 07:10:00,
2013-01-28 00:25:00,20.3,17.0,29.45,South,181,0.0,-999.0,85,-99.99,,,0.00,weatherlink.com 1.10,2013-01-28 07:25:00,
2013-01-28 00:40:00,20.1,16.0,29.45,South,181,0.0,-999.0,84,-99.99,,,0.00,weatherlink.com 1.10,2013-01-28 07:40:00,
2013-01-28 00:55:00,19.9,16.0,29.45,South,181,0.0,-999.0,84,-99.99,,,0.00,weatherlink.com 1.10,2013-01-28 07:55:00,
2013-01-28 01:10:00,19.7,16.0,29.45,South,181,0.0,-999.0,85,-99.99,,,0.00,weatherlink.com 1.10,2013-01-28 08:10:00,
2013-01-28 01:25:00,19.5,16.0,29.45,South,181,0.0,-999.0,86,-99.99,,,0.00,weatherlink.com 1.10,2013-01-28 08:25:00,
2013-01-28 01:40:00,19.1,15.0,29.45,South,181,0.0,-999.0,85,-99.99,,,0.00,weatherlink.com 1.10,2013-01-28 08:40:00,
2013-01-28 01:55:00,18.8,15.0,29.46,South,181,0.0,-999.0,86,-99.99,,,0.00,weatherlink.com 1.10,2013-01-28 08:55:00,
2013-01-28 02:10:00,18.6,15.0,29.46,South,181,0.0,-999.0,86,-99.99,,,0.00,weatherlink.com 1.10,2013-01-28 09:10:00,
2013-01-28 02:25:00,18.1,15.0,29.47,South,181,0.0,-999.0,86,-99.99,,,0.00,weatherlink.com 1.10,2013-01-28 09:25:00,
2013-01-28 02:40:00,18.5,15.0,29.47,South,181,0.0,-999.0,86,-99.99,,,0.00,weatherlink.com 1.10,2013-01-28 09:40:00,
2013-01-28 02:55:00,19.0,15.0,29.48,South,181,0.0,-999.0,84,-99.99,,,0.00,weatherlink.com 1.10,2013-01-28 09:55:00,
2013-01-28 03:10:00,18.6,15.0,29.48,South,181,0.0,-999.0,84,-99.99,,,0.00,weatherlink.com 1.10,2013-01-28 10:10:00,
2013-01-28 03:25:00,18.0,14.0,29.48,South,181,0.0,-999.0,83,-99.99,,,0.00,weatherlink.com 1.10,2013-01-28 10:25:00,
2013-01-28 03:40:00,17.8,14.0,29.47,South,181,0.0,-999.0,83,-99.99,,,0.00,weatherlink.com 1.10,2013-01-28 10:40:00,
2013-01-28 03:55:00,17.5,14.0,29.48,South,181,0.0,-999.0,84,-99.99,,,0.00,weatherlink.com 1.10,2013-01-28 10:55:00,
2013-01-28 04:10:00,17.6,14.0,29.48,South,181,0.0,-999.0,84,-99.99,,,0.00,weatherlink.com 1.10,2013-01-28 11:10:00,
2013-01-28 04:25:00,17.7,14.0,29.49,South,181,0.0,-999.0,84,-99.99,,,0.00,weatherlink.com 1.10,2013-01-28 11:25:00,
2013-01-28 04:40:00,17.6,13.0,29.49,South,181,0.0,-999.0,83,-99.99,,,0.00,weatherlink.com 1.10,2013-01-28 11:40:00,
2013-01-28 04:55:00,17.9,13.0,29.49,South,181,0.0,-999.0,82,-99.99,,,0.00,weatherlink.com 1.10,2013-01-28 11:55:00,
2013-01-28 05:10:00,17.8,13.0,29.49,South,181,0.0,-999.0,82,-99.99,,,0.00,weatherlink.com 1.10,2013-01-28 12:10:00,
2013-01-28 05:25:00,17.2,13.0,29.50,South,181,0.0,-999.0,82,-99.99,,,0.00,weatherlink.com 1.10,2013-01-28 12:25:00,
2013-01-28 05:40:00,17.2,13.0,29.50,South,181,0.0,-999.0,84,-99.99,,,0.00,weatherlink.com 1.10,2013-01-28 12:40:00,
2013-01-28 05:55:00,17.7,14.0,29.50,South,181,0.0,-999.0,84,-99.99,,,0.00,weatherlink.com 1.10,2013-01-28 12:55:00,
2013-01-28 06:10:00,17.9,14.0,29.50,South,181,0.0,-999.0,83,-99.99,,,0.00,weatherlink.com 1.10,2013-01-28 13:10:00,
2013-01-28 06:25:00,17.9,14.0,29.50,South,181,0.0,-999.0,84,-99.99,,,0.00,weatherlink.com 1.10,2013-01-28 13:25:00,
2013-01-28 06:40:00,18.2,14.0,29.51,South,181,0.0,-999.0,84,-99.99,,,0.00,weatherlink.com 1.10,2013-01-28 13:40:00,
2013-01-28 06:55:00,18.2,14.0,29.51,South,182,0.0,-999.0,84,-99.99,,,0.00,weatherlink.com 1.10,2013-01-28 13:55:00,
2013-01-28 07:10:00,18.1,14.0,29.52,South,182,0.0,-999.0,84,-99.99,,,0.00,weatherlink.com 1.10,2013-01-28 14:10:00,
2013-01-28 07:25:00,17.9,14.0,29.53,South,182,0.0,-999.0,85,-99.99,,,0.00,weatherlink.com 1.10,2013-01-28 14:25:00,
2013-01-28 07:40:00,17.6,14.0,29.53,South,182,0.0,-999.0,85,-99.99,,,0.00,weatherlink.com 1.10,2013-01-28 14:40:00,
2013-01-28 07:55:00,17.6,14.0,29.54,South,182,0.0,-999.0,86,-99.99,,,0.00,weatherlink.com 1.10,2013-01-28 14:55:00,
2013-01-28 08:11:00,17.6,14.0,29.54,South,182,0.0,-999.0,86,-99.99,,,0.00,weatherlink.com 1.10,2013-01-28 15:11:00,
2013-01-28 08:25:00,17.6,14.0,29.54,South,182,0.0,-999.0,86,-99.99,,,0.00,weatherlink.com 1.10,2013-01-28 15:25:00,
2013-01-28 08:41:00,17.7,14.0,29.55,South,181,1.0,-999.0,86,-99.99,,,0.00,weatherlink.com 1.10,2013-01-28 15:41:00,
2013-01-28 08:56:00,18.1,14.0,29.55,South,181,1.0,-999.0,83,-99.99,,,0.00,weatherlink.com 1.10,2013-01-28 15:56:00,
2013-01-28 09:11:00,18.1,14.0,29.56,South,181,4.0,-999.0,82,-99.99,,,0.00,weatherlink.com 1.10,2013-01-28 16:11:00,
2013-01-28 09:26:00,18.1,14.0,29.56,South,181,3.0,-999.0,82,-99.99,,,0.00,weatherlink.com 1.10,2013-01-28 16:26:00,
2013-01-28 09:41:00,18.2,13.0,29.57,South,185,4.0,-999.0,80,-99.99,,,0.00,weatherlink.com 1.10,2013-01-28 16:41:00,
2013-01-28 09:55:00,18.4,14.0,29.57,South,183,2.0,-999.0,81,-99.99,,,0.00,weatherlink.com 1.10,2013-01-28 16:55:00,
2013-01-28 10:10:00,18.8,14.0,29.58,South,188,2.0,-999.0,80,-99.99,,,0.00,weatherlink.com 1.10,2013-01-28 17:10:00,
2013-01-28 10:26:00,18.9,14.0,29.58,SSW,193,4.0,-999.0,80,-99.99,,,0.00,weatherlink.com 1.10,2013-01-28 17:26:00,
2013-01-28 10:40:00,19.1,14.0,29.59,SSW,192,3.0,-999.0,81,-99.99,,,0.00,weatherlink.com 1.10,2013-01-28 17:40:00,
2013-01-28 10:56:00,18.9,14.0,29.59,South,187,3.0,-999.0,80,-99.99,,,0.00,weatherlink.com 1.10,2013-01-28 17:56:00,
2013-01-28 11:11:00,19.2,13.0,29.59,South,188,3.0,-999.0,78,-99.99,,,0.00,weatherlink.com 1.10,2013-01-28 18:11:00,
2013-01-28 11:25:00,19.5,14.0,29.59,South,188,2.0,-999.0,78,-99.99,,,0.00,weatherlink.com 1.10,2013-01-28 18:25:00,
2013-01-28 11:40:00,19.7,14.0,29.59,South,189,4.0,-999.0,78,-99.99,,,0.00,weatherlink.com 1.10,2013-01-28 18:40:00,
2013-01-28 11:55:00,19.7,14.0,29.59,South,188,2.0,-999.0,78,-99.99,,,0.00,weatherlink.com 1.10,2013-01-28 18:55:00,
2013-01-28 12:10:00,20.4,14.0,29.59,South,188,2.0,-999.0,76,-99.99,,,0.00,weatherlink.com 1.10,2013-01-28 19:10:00,
2013-01-28 12:25:00,20.1,13.0,29.58,SW,224,3.0,-999.0,75,-99.99,,,0.00,weatherlink.com 1.10,2013-01-28 19:25:00,
2013-01-28 12:40:00,19.9,13.0,29.58,SW,221,4.0,-999.0,74,-99.99,,,0.00,weatherlink.com 1.10,2013-01-28 19:40:00,
2013-01-28 12:55:00,20.1,14.0,29.58,SW,214,5.0,-999.0,76,-99.99,,,0.00,weatherlink.com 1.10,2013-01-28 19:55:00,
2013-01-28 13:10:00,19.8,13.0,29.58,SW,214,5.0,-999.0,76,-99.99,,,0.00,weatherlink.com 1.10,2013-01-28 20:10:00,
2013-01-28 13:25:00,19.8,14.0,29.58,SSW,207,4.0,-999.0,78,-99.99,,,0.00,weatherlink.com 1.10,2013-01-28 20:25:00,
2013-01-28 13:40:00,20.2,13.0,29.58,SW,225,4.0,-999.0,74,-99.99,,,0.00,weatherlink.com 1.10,2013-01-28 20:40:00,
2013-01-28 13:55:00,20.3,13.0,29.58,SW,224,4.0,-999.0,74,-99.99,,,0.00,weatherlink.com 1.10,2013-01-28 20:55:00,
2013-01-28 14:10:00,19.7,13.0,29.58,SSW,213,5.0,-999.0,75,-99.99,,,0.00,weatherlink.com 1.10,2013-01-28 21:10:00,
2013-01-28 14:25:00,19.6,13.0,29.58,WSW,238,7.0,-999.0,74,-99.99,,,0.00,weatherlink.com 1.10,2013-01-28 21:25:00,
2013-01-28 14:40:00,19.1,12.0,29.59,WSW,238,14.0,-999.0,73,-99.99,,,0.00,weatherlink.com 1.10,2013-01-28 21:40:00,
2013-01-28 14:55:00,19.0,11.0,29.59,WSW,238,6.0,-999.0,71,-99.99,,,0.00,weatherlink.com 1.10,2013-01-28 21:55:00,
2013-01-28 15:10:00,19.7,11.0,29.59,SW,234,4.0,-999.0,70,-99.99,,,0.00,weatherlink.com 1.10,2013-01-28 22:10:00,
2013-01-28 15:25:00,20.9,12.0,29.60,SW,225,2.0,-999.0,68,-99.99,,,0.00,weatherlink.com 1.10,2013-01-28 22:25:00,
2013-01-28 15:40:00,20.9,12.0,29.61,SSW,206,3.0,-999.0,68,-99.99,,,0.00,weatherlink.com 1.10,2013-01-28 22:40:00,
2013-01-28 15:55:00,20.7,12.0,29.61,SSW,199,2.0,-999.0,68,-99.99,,,0.00,weatherlink.com 1.10,2013-01-28 22:55:00,
2013-01-28 16:10:00,19.7,10.0,29.61,SSW,197,3.0,-999.0,67,-99.99,,,0.00,weatherlink.com 1.10,2013-01-28 23:10:00,
2013-01-28 16:25:00,17.9,10.0,29.62,SSW,197,0.0,-999.0,70,-99.99,,,0.00,weatherlink.com 1.10,2013-01-28 23:25:00,
2013-01-28 16:40:00,17.2,10.0,29.61,SSW,197,0.0,-999.0,73,-99.99,,,0.00,weatherlink.com 1.10,2013-01-28 23:40:00,
2013-01-28 16:55:00,16.9,11.0,29.62,SSW,197,1.0,-999.0,76,-99.99,,,0.00,weatherlink.com 1.10,2013-01-28 23:55:00,
2013-01-28 17:10:00,17.0,11.0,29.62,SSW,197,1.0,-999.0,77,-99.99,,,0.00,weatherlink.com 1.10,2013-01-29 00:10:00,
2013-01-28 17:25:00,17.1,11.0,29.63,SSW,197,1.0,-999.0,76,-99.99,,,0.00,weatherlink.com 1.10,2013-01-29 00:25:00,
2013-01-28 17:40:00,17.4,11.0,29.63,SSW,197,0.0,-999.0,76,-99.99,,,0.00,weatherlink.com 1.10,2013-01-29 00:40:00,
2013-01-28 17:55:00,17.2,11.0,29.63,SSW,197,0.0,-999.0,75,-99.99,,,0.00,weatherlink.com 1.10,2013-01-29 00:55:00,
2013-01-28 18:10:00,17.1,10.0,29.63,SSW,197,1.0,-999.0,75,-99.99,,,0.00,weatherlink.com 1.10,2013-01-29 01:10:00,
2013-01-28 18:25:00,17.2,10.0,29.64,SSW,207,6.0,-999.0,74,-99.99,,,0.00,weatherlink.com 1.10,2013-01-29 01:25:00,
2013-01-28 18:40:00,16.8,10.0,29.64,SSW,211,4.0,-999.0,74,-99.99,,,0.00,weatherlink.com 1.10,2013-01-29 01:40:00,
2013-01-28 18:55:00,16.2,10.0,29.64,SSW,212,2.0,-999.0,75,-99.99,,,0.00,weatherlink.com 1.10,2013-01-29 01:55:00,
2013-01-28 19:10:00,15.6,9.0,29.64,SSW,211,4.0,-999.0,76,-99.99,,,0.00,weatherlink.com 1.10,2013-01-29 02:10:00,
2013-01-28 19:26:00,15.7,9.0,29.64,SSW,199,4.0,-999.0,74,-99.99,,,0.00,weatherlink.com 1.10,2013-01-29 02:26:00,
2013-01-28 19:41:00,16.0,8.0,29.64,South,186,5.0,-999.0,72,-99.99,,,0.00,weatherlink.com 1.10,2013-01-29 02:41:00,
2013-01-28 19:56:00,15.8,8.0,29.63,South,183,1.0,-999.0,72,-99.99,,,0.00,weatherlink.com 1.10,2013-01-29 02:56:00,
2013-01-28 20:11:00,15.6,8.0,29.63,South,181,2.0,-999.0,73,-99.99,,,0.00,weatherlink.com 1.10,2013-01-29 03:11:00,
2013-01-28 20:26:00,15.8,9.0,29.62,South,181,0.0,-999.0,73,-99.99,,,0.00,weatherlink.com 1.10,2013-01-29 03:26:00,
2013-01-28 20:41:00,15.5,9.0,29.62,South,181,1.0,-999.0,74,-99.99,,,0.00,weatherlink.com 1.10,2013-01-29 03:41:00,
2013-01-28 20:56:00,15.1,9.0,29.62,South,181,0.0,-999.0,76,-99.99,,,0.00,weatherlink.com 1.10,2013-01-29 03:56:00,
2013-01-28 21:11:00,14.8,9.0,29.61,South,181,1.0,-999.0,79,-99.99,,,0.00,weatherlink.com 1.10,2013-01-29 04:11:00,
2013-01-28 21:26:00,14.4,10.0,29.61,South,181,0.0,-999.0,81,-99.99,,,0.00,weatherlink.com 1.10,2013-01-29 04:26:00,
2013-01-28 21:41:00,14.2,10.0,29.60,South,180,1.0,-999.0,82,-99.99,,,0.00,weatherlink.com 1.10,2013-01-29 04:41:00,
2013-01-28 21:56:00,14.4,10.0,29.59,South,180,0.0,-999.0,82,-99.99,,,0.00,weatherlink.com 1.10,2013-01-29 04:56:00,
2013-01-28 22:11:00,14.7,10.0,29.59,South,180,1.0,-999.0,83,-99.99,,,0.00,weatherlink.com 1.10,2013-01-29 05:11:00,
2013-01-28 22:26:00,14.5,10.0,29.59,South,180,1.0,-999.0,82,-99.99,,,0.00,weatherlink.com 1.10,2013-01-29 05:26:00,
2013-01-28 22:41:00,14.4,10.0,29.59,South,180,2.0,-999.0,83,-99.99,,,0.00,weatherlink.com 1.10,2013-01-29 05:41:00,
2013-01-28 22:56:00,15.0,11.0,29.58,South,178,0.0,-999.0,84,-99.99,,,0.00,weatherlink.com 1.10,2013-01-29 05:56:00,
2013-01-28 23:11:00,14.8,11.0,29.58,South,178,1.0,-999.0,84,-99.99,,,0.00,weatherlink.com 1.10,2013-01-29 06:11:00,
2013-01-28 23:26:00,14.4,10.0,29.57,South,178,0.0,-999.0,83,-99.99,,,0.00,weatherlink.com 1.10,2013-01-29 06:26:00,
2013-01-28 23:41:00,13.8,10.0,29.57,South,178,0.0,-999.0,84,-99.99,,,0.00,weatherlink.com 1.10,2013-01-29 06:41:00,
2013-01-28 23:56:00,13.5,9.0,29.56,South,178,1.0,-999.0,83,-99.99,,,0.00,weatherlink.com 1.10,2013-01-29 06:56:00,